RYR2MJ EPKK-LIPH

Flight info

Callsign RYR2MJ
Flight time 1h 23m
Altitude 36000
Route TUSIN DCT MIKOV DCT VATET DCT OBEDI DCT DETSA/N0435F350 DCT BAKOR/N0359F190 N503 VIC
Aircraft B737/M-SDE2E3FGHIRWXY/LB1

Departure

Time 2026-04-12 06:40
Airport Kraków John Paul II International Airport (EPKK)

Arrival

Time 2026-04-12 08:04
Airport Treviso Airport (LIPH)
Time Latitude Longitude Altitude Speed Heading
2026-04-12 05:36 50.07286 19.79889 799 ft 0 kts 168°
2026-04-12 06:14 50.07292 19.79887 799 ft 4 kts 168°
2026-04-12 06:14 50.07318 19.79878 799 ft 4 kts 168°
2026-04-12 06:14 50.07344 19.79869 799 ft 4 kts 168°
2026-04-12 06:14 50.07366 19.79853 799 ft 4 kts 119°
2026-04-12 06:15 50.07370 19.79823 799 ft 2 kts 77°
2026-04-12 06:15 50.07367 19.79805 799 ft 0 kts 78°
2026-04-12 06:34 50.07368 19.79806 799 ft 1 kts 78°
2026-04-12 06:35 50.07381 19.79893 799 ft 6 kts 77°
2026-04-12 06:35 50.07390 19.79956 799 ft 6 kts 77°
2026-04-12 06:35 50.07398 19.80018 799 ft 6 kts 77°
2026-04-12 06:36 50.07407 19.80079 799 ft 6 kts 77°
2026-04-12 06:36 50.07416 19.80142 799 ft 6 kts 77°
2026-04-12 06:36 50.07426 19.80214 799 ft 7 kts 78°
2026-04-12 06:36 50.07437 19.80294 799 ft 8 kts 78°
2026-04-12 06:37 50.07460 19.80364 799 ft 8 kts 38°
2026-04-12 06:37 50.07511 19.80398 799 ft 8 kts 18°
2026-04-12 06:37 50.07565 19.80424 799 ft 8 kts
2026-04-12 06:37 50.07622 19.80409 799 ft 8 kts 346°
2026-04-12 06:38 50.07677 19.80389 799 ft 8 kts 349°
2026-04-12 06:38 50.07730 19.80374 799 ft 8 kts 349°
2026-04-12 06:38 50.07782 19.80356 799 ft 7 kts 346°
2026-04-12 06:38 50.07832 19.80338 799 ft 7 kts 346°
2026-04-12 06:39 50.07880 19.80320 799 ft 7 kts 347°
2026-04-12 06:39 50.07932 19.80305 799 ft 8 kts 349°
2026-04-12 06:39 50.07984 19.80287 798 ft 7 kts 342°
2026-04-12 06:39 50.08012 19.80226 799 ft 7 kts 275°
2026-04-12 06:40 50.08004 19.80150 800 ft 7 kts 258°
2026-04-12 06:40 50.07962 19.79826 799 ft 80 kts 258°
2026-04-12 06:40 50.07800 19.78476 875 ft 163 kts 261°
2026-04-12 06:40 50.07604 19.76540 1581 ft 199 kts 262°
2026-04-12 06:41 50.07379 19.74463 3080 ft 180 kts 254°
2026-04-12 06:41 50.07087 19.72731 4756 ft 151 kts 255°
2026-04-12 06:41 50.06852 19.71279 5726 ft 139 kts 256°
2026-04-12 06:41 50.06606 19.69702 6061 ft 159 kts 256°
2026-04-12 06:42 50.06317 19.67797 6036 ft 202 kts 257°
2026-04-12 06:42 50.05977 19.65501 6051 ft 233 kts 257°
2026-04-12 06:42 50.05604 19.62942 6222 ft 248 kts 257°
2026-04-12 06:42 50.05228 19.60316 6916 ft 249 kts 257°
2026-04-12 06:43 50.04844 19.57615 7357 ft 265 kts 258°
2026-04-12 06:43 50.04437 19.54743 8002 ft 277 kts 259°
2026-04-12 06:43 50.04020 19.51801 8998 ft 280 kts 259°
2026-04-12 06:43 50.03596 19.48814 9989 ft 286 kts 259°
2026-04-12 06:44 50.03161 19.45793 10751 ft 298 kts 258°
2026-04-12 06:44 50.02567 19.42540 11030 ft 326 kts 254°
2026-04-12 06:44 50.01856 19.39117 11725 ft 337 kts 254°
2026-04-12 06:44 50.01114 19.35636 12677 ft 341 kts 255°
2026-04-12 06:45 50.00368 19.32131 13684 ft 343 kts 255°
2026-04-12 06:45 49.99621 19.28586 14587 ft 347 kts 256°
2026-04-12 06:45 49.98872 19.25000 15522 ft 350 kts 257°
2026-04-12 06:45 49.98122 19.21388 16488 ft 352 kts 258°
2026-04-12 06:46 49.97368 19.17746 17422 ft 356 kts 259°
2026-04-12 06:46 49.96607 19.14070 18344 ft 359 kts 259°
2026-04-12 06:46 49.95839 19.10358 19144 ft 363 kts 259°
2026-04-12 06:46 49.95063 19.06616 19964 ft 365 kts 260°
2026-04-12 06:47 49.94281 19.02853 20773 ft 368 kts 260°
2026-04-12 06:47 49.93492 18.99060 21572 ft 371 kts 260°
2026-04-12 06:47 49.92694 18.95234 22329 ft 374 kts 260°
2026-04-12 06:47 49.91891 18.91391 23118 ft 376 kts 260°
2026-04-12 06:48 49.91079 18.87509 23834 ft 380 kts 260°
2026-04-12 06:48 49.90257 18.83590 24427 ft 384 kts 260°
2026-04-12 06:48 49.89426 18.79633 25015 ft 387 kts 260°
2026-04-12 06:48 49.88587 18.75650 25601 ft 391 kts 260°
2026-04-12 06:49 49.87736 18.71618 26179 ft 394 kts 260°
2026-04-12 06:49 49.86879 18.67562 26752 ft 398 kts 260°
2026-04-12 06:49 49.86013 18.63473 27308 ft 401 kts 260°
2026-04-12 06:49 49.85055 18.59376 27837 ft 411 kts 254°
2026-04-12 06:50 49.83695 18.55417 28354 ft 423 kts 246°
2026-04-12 06:50 49.81918 18.51707 28889 ft 432 kts 239°
2026-04-12 06:50 49.80010 18.48087 29418 ft 436 kts 238°
2026-04-12 06:50 49.78064 18.44466 29890 ft 440 kts 238°
2026-04-12 06:51 49.76102 18.40825 30392 ft 441 kts 238°
2026-04-12 06:51 49.74143 18.37183 30958 ft 439 kts 238°
2026-04-12 06:51 49.72202 18.33559 31538 ft 437 kts 238°
2026-04-12 06:51 49.70297 18.29987 32079 ft 435 kts 238°
2026-04-12 06:52 49.68381 18.26385 32604 ft 434 kts 238°
2026-04-12 06:52 49.66467 18.22781 33070 ft 434 kts 238°
2026-04-12 06:52 49.64556 18.19182 33539 ft 434 kts 237°
2026-04-12 06:52 49.62647 18.15591 34040 ft 433 kts 237°
2026-04-12 06:53 49.60734 18.11999 34454 ft 432 kts 237°
2026-04-12 06:53 49.58826 18.08422 34822 ft 432 kts 237°
2026-04-12 06:53 49.56916 18.04846 35152 ft 433 kts 237°
2026-04-12 06:54 49.53063 17.97642 35146 ft 436 kts 237°
2026-04-12 06:54 49.49228 17.90507 35154 ft 430 kts 237°
2026-04-12 06:55 49.45409 17.83413 35140 ft 431 kts 237°
2026-04-12 06:55 49.41576 17.76309 35151 ft 432 kts 237°
2026-04-12 06:56 49.37734 17.69207 35147 ft 433 kts 236°
2026-04-12 06:56 49.33880 17.62105 35139 ft 433 kts 236°
2026-04-12 06:57 49.30019 17.55011 35107 ft 432 kts 236°
2026-04-12 06:57 49.26202 17.48019 35121 ft 430 kts 236°
2026-04-12 06:58 49.22348 17.40975 35129 ft 428 kts 236°
2026-04-12 06:58 49.18558 17.34063 35137 ft 427 kts 236°
2026-04-12 06:59 49.14739 17.27117 35133 ft 427 kts 236°
2026-04-12 06:59 49.10915 17.20181 35116 ft 427 kts 236°
2026-04-12 07:00 49.05169 17.09793 35125 ft 427 kts 236°
2026-04-12 07:00 49.01328 17.02873 35129 ft 428 kts 236°
2026-04-12 07:01 48.97484 16.95964 35122 ft 428 kts 236°
2026-04-12 07:01 48.93632 16.89060 35099 ft 427 kts 236°
2026-04-12 07:02 48.89786 16.82185 35112 ft 426 kts 236°
2026-04-12 07:02 48.85946 16.75336 35120 ft 425 kts 236°
2026-04-12 07:03 48.82113 16.68514 35120 ft 424 kts 236°
2026-04-12 07:03 48.78294 16.61689 35116 ft 422 kts 239°
2026-04-12 07:04 48.74988 16.54425 35101 ft 418 kts 243°
2026-04-12 07:04 48.71832 16.47042 35108 ft 418 kts 244°
2026-04-12 07:05 48.68650 16.39667 35107 ft 418 kts 243°
2026-04-12 07:05 48.65434 16.32321 35108 ft 419 kts 243°
2026-04-12 07:06 48.62200 16.24988 35091 ft 419 kts 243°
2026-04-12 07:06 48.58980 16.17714 35083 ft 418 kts 243°
2026-04-12 07:07 48.55745 16.10429 35090 ft 417 kts 243°
2026-04-12 07:07 48.52510 16.03160 35088 ft 417 kts 243°
2026-04-12 07:08 48.49275 15.95909 35090 ft 417 kts 242°
2026-04-12 07:08 48.46559 15.89838 35085 ft 417 kts 242°
2026-04-12 07:09 48.43314 15.82600 35088 ft 417 kts 242°
2026-04-12 07:09 48.40066 15.75375 35080 ft 417 kts 242°
2026-04-12 07:10 48.36832 15.68201 35086 ft 418 kts 242°
2026-04-12 07:10 48.33568 15.60979 35081 ft 417 kts 241°
2026-04-12 07:11 48.30307 15.53787 35069 ft 415 kts 241°
2026-04-12 07:11 48.27059 15.46641 35070 ft 413 kts 241°
2026-04-12 07:12 48.23816 15.39523 35061 ft 412 kts 241°
2026-04-12 07:12 48.20574 15.32425 35053 ft 412 kts 241°
2026-04-12 07:13 48.17326 15.25331 35066 ft 413 kts 241°
2026-04-12 07:13 48.14062 15.18221 35044 ft 415 kts 241°
2026-04-12 07:14 48.10789 15.11112 35046 ft 415 kts 241°
2026-04-12 07:14 48.07506 15.04003 35023 ft 415 kts 241°
2026-04-12 07:15 48.04241 14.96946 35042 ft 416 kts 241°
2026-04-12 07:15 48.00939 14.89829 35035 ft 417 kts 241°
2026-04-12 07:16 47.97626 14.82710 35037 ft 417 kts 241°
2026-04-12 07:16 47.94309 14.75596 35034 ft 418 kts 241°
2026-04-12 07:17 47.90989 14.68500 35029 ft 417 kts 241°
2026-04-12 07:17 47.87669 14.61418 35033 ft 417 kts 241°
2026-04-12 07:18 47.84342 14.54341 35018 ft 418 kts 241°
2026-04-12 07:18 47.81004 14.47254 34997 ft 418 kts 240°
2026-04-12 07:19 47.77688 14.40241 35007 ft 416 kts 240°
2026-04-12 07:19 47.74364 14.33224 34992 ft 415 kts 240°
2026-04-12 07:20 47.71045 14.26235 34998 ft 414 kts 240°
2026-04-12 07:20 47.67729 14.19267 34997 ft 413 kts 240°
2026-04-12 07:21 47.64407 14.12303 34998 ft 414 kts 240°
2026-04-12 07:21 47.61075 14.05337 34990 ft 415 kts 240°
2026-04-12 07:22 47.58031 13.98139 34978 ft 410 kts 245°
2026-04-12 07:22 47.55238 13.90783 35005 ft 410 kts 245°
2026-04-12 07:23 47.52441 13.83439 34991 ft 410 kts 245°
2026-04-12 07:23 47.49626 13.76130 35004 ft 408 kts 245°
2026-04-12 07:24 47.46822 13.68895 35003 ft 407 kts 245°
2026-04-12 07:24 47.44003 13.61643 35009 ft 407 kts 245°
2026-04-12 07:25 47.41183 13.54405 34975 ft 407 kts 244°
2026-04-12 07:25 47.38361 13.47184 34999 ft 406 kts 244°
2026-04-12 07:26 47.35531 13.39956 35005 ft 407 kts 244°
2026-04-12 07:26 47.32677 13.32727 35016 ft 409 kts 242°
2026-04-12 07:27 47.29401 13.25822 35000 ft 411 kts 237°
2026-04-12 07:27 47.25989 13.19057 34996 ft 411 kts 237°
2026-04-12 07:28 47.22603 13.12304 34996 ft 409 kts 237°
2026-04-12 07:28 47.19243 13.05550 35014 ft 408 kts 238°
2026-04-12 07:29 47.15889 12.98794 35006 ft 410 kts 238°
2026-04-12 07:29 47.12515 12.92014 35016 ft 411 kts 237°
2026-04-12 07:30 47.09135 12.85238 35019 ft 412 kts 237°
2026-04-12 07:30 47.05739 12.78449 35018 ft 413 kts 237°
2026-04-12 07:31 47.02341 12.71670 35012 ft 413 kts 237°
2026-04-12 07:31 46.98931 12.64888 35020 ft 413 kts 237°
2026-04-12 07:32 46.95526 12.58131 35036 ft 411 kts 237°
2026-04-12 07:32 46.92150 12.51446 35045 ft 411 kts 237°
2026-04-12 07:33 46.88758 12.44746 35062 ft 410 kts 236°
2026-04-12 07:33 46.85369 12.38064 35085 ft 409 kts 236°
2026-04-12 07:34 46.81970 12.31380 35101 ft 410 kts 236°
2026-04-12 07:34 46.78917 12.24399 35114 ft 407 kts 245°
2026-04-12 07:35 46.76381 12.17011 35027 ft 407 kts 245°
2026-04-12 07:35 46.73842 12.09639 35014 ft 406 kts 245°
2026-04-12 07:36 46.71282 12.02309 35022 ft 405 kts 245°
2026-04-12 07:36 46.68718 11.95019 35033 ft 404 kts 245°
2026-04-12 07:37 46.66157 11.87751 35025 ft 403 kts 245°
2026-04-12 07:37 46.63594 11.80503 35040 ft 402 kts 245°
2026-04-12 07:38 46.62037 11.77097 35016 ft 409 kts 229°
2026-04-12 07:38 46.59822 11.74557 35045 ft 416 kts 213°
2026-04-12 07:38 46.57142 11.72876 35014 ft 425 kts 198°
2026-04-12 07:38 46.54183 11.72296 35061 ft 431 kts 187°
2026-04-12 07:39 46.48158 11.72051 35044 ft 434 kts 185°
2026-04-12 07:39 46.42111 11.71799 35033 ft 435 kts 187°
2026-04-12 07:40 46.36055 11.71438 35029 ft 436 kts 187°
2026-04-12 07:40 46.29985 11.71115 35040 ft 437 kts 187°
2026-04-12 07:41 46.23907 11.70799 35029 ft 437 kts 187°
2026-04-12 07:41 46.17830 11.70481 35047 ft 437 kts 186°
2026-04-12 07:42 46.11759 11.70162 35045 ft 436 kts 187°
2026-04-12 07:43 45.99649 11.69520 34929 ft 436 kts 187°
2026-04-12 07:43 45.96598 11.69357 34302 ft 439 kts 186°
2026-04-12 07:43 45.93545 11.69196 33590 ft 438 kts 186°
2026-04-12 07:44 45.90500 11.69034 32870 ft 438 kts 186°
2026-04-12 07:44 45.87478 11.68873 32374 ft 432 kts 186°
2026-04-12 07:44 45.84488 11.68714 31816 ft 428 kts 186°
2026-04-12 07:44 45.81526 11.68555 31289 ft 424 kts 185°
2026-04-12 07:45 45.78592 11.68398 30779 ft 420 kts 185°
2026-04-12 07:45 45.75724 11.68245 30277 ft 416 kts 185°
2026-04-12 07:45 45.72843 11.68090 29707 ft 412 kts 185°
2026-04-12 07:45 45.69999 11.67937 29150 ft 407 kts 184°
2026-04-12 07:46 45.67193 11.67788 28625 ft 401 kts 184°
2026-04-12 07:46 45.64423 11.67640 28100 ft 396 kts 184°
2026-04-12 07:46 45.61682 11.67494 27662 ft 390 kts 184°
2026-04-12 07:46 45.59002 11.67352 27416 ft 382 kts 184°
2026-04-12 07:47 45.56365 11.67211 27103 ft 378 kts 184°
2026-04-12 07:47 45.53761 11.66744 26480 ft 378 kts 201°
2026-04-12 07:47 45.51526 11.64868 25892 ft 374 kts 225°
2026-04-12 07:47 45.50077 11.61841 25320 ft 372 kts 249°
2026-04-12 07:48 45.49662 11.58242 24717 ft 369 kts 271°
2026-04-12 07:48 45.50067 11.54641 23951 ft 369 kts 284°
2026-04-12 07:48 45.51030 11.51241 23036 ft 373 kts 297°
2026-04-12 07:48 45.52548 11.48244 22211 ft 373 kts 311°
2026-04-12 07:49 45.54591 11.46004 21496 ft 372 kts 330°
2026-04-12 07:49 45.56933 11.44492 20796 ft 368 kts 335°
2026-04-12 07:49 45.59305 11.43148 20048 ft 365 kts 336°
2026-04-12 07:49 45.61662 11.41824 19310 ft 363 kts 335°
2026-04-12 07:50 45.63989 11.40476 18622 ft 359 kts 335°
2026-04-12 07:50 45.66286 11.39116 17908 ft 355 kts 334°
2026-04-12 07:50 45.68551 11.37773 17197 ft 351 kts 337°
2026-04-12 07:50 45.70941 11.37118 16451 ft 352 kts 360°
2026-04-12 07:51 45.73325 11.37821 15784 ft 350 kts 22°
2026-04-12 07:51 45.75343 11.39716 15134 ft 347 kts 45°
2026-04-12 07:51 45.76712 11.42499 14480 ft 341 kts 69°
2026-04-12 07:51 45.77109 11.45737 13941 ft 331 kts 94°
2026-04-12 07:52 45.76692 11.48841 13774 ft 308 kts 113°
2026-04-12 07:52 45.75728 11.51477 13405 ft 293 kts 128°
2026-04-12 07:52 45.74437 11.53709 12809 ft 289 kts 136°
2026-04-12 07:52 45.73005 11.55716 12209 ft 287 kts 139°
2026-04-12 07:53 45.71533 11.57639 11633 ft 284 kts 140°
2026-04-12 07:53 45.70071 11.59520 11078 ft 282 kts 140°
2026-04-12 07:53 45.68612 11.61373 10523 ft 279 kts 140°
2026-04-12 07:53 45.67164 11.63207 9994 ft 277 kts 140°
2026-04-12 07:54 45.65730 11.65024 9420 ft 274 kts 140°
2026-04-12 07:54 45.64310 11.66823 8851 ft 271 kts 140°
2026-04-12 07:54 45.62882 11.68548 8313 ft 268 kts 143°
2026-04-12 07:54 45.61400 11.70152 7796 ft 264 kts 145°
2026-04-12 07:55 45.59936 11.71714 7274 ft 262 kts 144°
2026-04-12 07:55 45.58479 11.73279 6720 ft 262 kts 144°
2026-04-12 07:55 45.57055 11.74815 6415 ft 251 kts 143°
2026-04-12 07:55 45.55714 11.76267 6279 ft 234 kts 142°
2026-04-12 07:56 45.54725 11.78011 5702 ft 227 kts 111°
2026-04-12 07:56 45.54493 11.79448 5320 ft 224 kts 95°
2026-04-12 07:56 45.54710 11.81568 5014 ft 210 kts 66°
2026-04-12 07:56 45.55341 11.83380 4780 ft 200 kts 68°
2026-04-12 07:57 45.55840 11.85148 4609 ft 184 kts 70°
2026-04-12 07:57 45.56283 11.86823 4584 ft 185 kts 71°
2026-04-12 07:57 45.56882 11.89110 4289 ft 186 kts 70°
2026-04-12 07:57 45.57181 11.90254 4132 ft 177 kts 70°
2026-04-12 07:58 45.57595 11.91833 3907 ft 163 kts 70°
2026-04-12 07:58 45.57967 11.93255 3700 ft 143 kts 70°
2026-04-12 07:58 45.58296 11.94513 3494 ft 129 kts 70°
2026-04-12 07:58 45.58590 11.95685 3297 ft 123 kts 72°
2026-04-12 07:59 45.58860 11.96851 3239 ft 121 kts 71°
2026-04-12 07:59 45.59175 11.97976 3015 ft 127 kts 66°
2026-04-12 07:59 45.59560 11.99108 2870 ft 125 kts 64°
2026-04-12 07:59 45.59935 12.00236 2664 ft 126 kts 70°
2026-04-12 08:00 45.60234 12.01390 2552 ft 126 kts 72°
2026-04-12 08:00 45.60490 12.02591 2478 ft 125 kts 73°
2026-04-12 08:00 45.60762 12.03773 2327 ft 126 kts 70°
2026-04-12 08:00 45.61078 12.04965 2122 ft 130 kts 69°
2026-04-12 08:01 45.61386 12.06183 1897 ft 129 kts 71°
2026-04-12 08:01 45.61690 12.07379 1729 ft 127 kts 71°
2026-04-12 08:01 45.61989 12.08565 1577 ft 126 kts 70°
2026-04-12 08:01 45.62328 12.09718 1390 ft 124 kts 67°
2026-04-12 08:02 45.62639 12.10843 1122 ft 122 kts 77°
2026-04-12 08:02 45.62883 12.11978 857 ft 120 kts 67°
2026-04-12 08:02 45.63182 12.13126 723 ft 124 kts 69°
2026-04-12 08:02 45.63492 12.14293 649 ft 129 kts 68°
2026-04-12 08:03 45.63820 12.15486 463 ft 130 kts 70°
2026-04-12 08:03 45.64133 12.16683 322 ft 128 kts 71°
2026-04-12 08:03 45.64442 12.17863 138 ft 125 kts 68°
2026-04-12 08:03 45.64740 12.18988 65 ft 111 kts 69°
2026-04-12 08:04 45.64961 12.19817 56 ft 67 kts 69°
2026-04-12 08:04 45.65063 12.20148 62 ft 27 kts 46°
2026-04-12 08:04 45.65169 12.20242 62 ft 11 kts 25°
2026-04-12 08:04 45.65222 12.20277 58 ft 5 kts 25°
2026-04-12 08:05 45.65255 12.20298 60 ft 5 kts 25°
2026-04-12 08:05 45.65283 12.20326 57 ft 5 kts 49°
2026-04-12 08:05 45.65299 12.20370 57 ft 5 kts 66°
2026-04-12 08:05 45.65318 12.20408 56 ft 5 kts 24°
2026-04-12 08:06 45.65348 12.20388 61 ft 5 kts 326°
2026-04-12 08:06 45.65361 12.20381 61 ft 1 kts 341°
2026-04-12 08:06 45.65369 12.20377 60 ft 1 kts 339°
2026-04-12 08:06 45.65372 12.20375 60 ft 0 kts 339°